Location: Kershaw
(34.5481°N, 80.5823°W)
Time: 11:25:04
(UTC+00:00)

A-11 Canister half - Pass Details

Date: 09 October 2022
Orbit: 1524 x 1685 km, 47.3° (Epoch: 25 November)

Event Time Altitude Azimuth Distance (km) Brightness Sun altitude
Rises 03:44:43 0° 292° (WNW) 4,749 12.0 -55.6°
Reaches altitude 10° 03:48:54 10° 276° (W) 3,789 11.3 -56.1°
Enters shadow 03:50:02 13° 270° (W) 3,584 11.1 -56.2°
